星链-3821 (STARLINK-3821 )

导读 | 星芒AI

STARLINK-3821 是 SpaceX Starlink 卫星互联网项目中的一颗低轨卫星,属于第 11 批组网卫星(Batch 11)。该卫星于 2021 年 11 月 19 日由猎鹰 9 号火箭成功送入近地轨道,旨在为全球用户提供高速、低延迟的宽带互联网服务。作为 Starlink 计划的一部分,STARLINK-3821 与其他数千颗卫星协同工作,提升网络覆盖和连接稳定性,尤其服务于偏远地区。

基本信息
目录编号:
52357
目录名称:
STARLINK-3821
国际标识:
2022-045AC
轨道中心:
EARTH
卫星名称:
星链-3821
卫星全名:
星链-3821 (STARLINK-3821 )
卫星状态:
在轨 (已飞行1285 天)
发射日期:
2022-04-29 UTC
国别 :
美国 (US)
星等 :
--
轨道信息
数据来源 国际轨道数据 AOE轨道数据
星历时间 2025-11-04T22:53:14+0800
6小时前
查看轨道信息
2025-11-03T10:00:00+0800
1天前
查看轨道信息
半长轴 6917.874km 6917.889km
偏心率 0.0001453 0.0001536
轨道倾角 53.220° 53.215°
近地点辐角 95.151° 60.733°
升交点赤经 40.576° 47.477°
平近点角 264.964° 226.254°
近地点 538.733km 538.691km
远地点 540.745km 540.817km
周期 95.437分钟 95.438分钟
每日圈数 15.088423 15.088374
详细信息
固有亮度:
5
最大亮度:
2.5
卫星平台:
Starlink v1.5
覆盖范围:
全球
运营商:
太空探索技术公司
运营商所在国:
美国
制造商(研发单位):
太空探索技术公司
制造商所在国:
美国
使用方式:
暂无
卫星简介
星链(Starlink)计划是由太空探索技术公司(SpaceX)提出的一个巨型低轨卫星互联网星座项目,计划在2019年至2024年间在太空搭建由约1.2万颗卫星组成的“星链”网络,其中1584颗将部署在地球上空550千米处的近地轨道,并从2020年开始工作。该卫星仍在工作。
2D轨道图
3D轨道图
轨道高度分析图
轨道倾角分析图
轨道综合分析图
查看轨道综合分析图